TimeEST,TemperatureF,Dew PointF,Humidity,Sea Level PressureIn,VisibilityMPH,Wind Direction,Wind SpeedMPH,Gust SpeedMPH,PrecipitationIn,Events,Conditions,WindDirDegrees,DateUTC
12:53 AM,78.1,70.0,76,30.15,10.0,ESE,11.5,-,0.00,,Overcast,120,2013-12-09 05:53:00
1:53 AM,77.0,69.1,76,30.14,10.0,ESE,11.5,-,N/A,,Scattered Clouds,120,2013-12-09 06:53:00
2:53 AM,75.9,69.1,79,30.15,10.0,ESE,8.1,-,N/A,,Overcast,110,2013-12-09 07:53:00
3:53 AM,75.9,69.1,79,30.15,10.0,ESE,5.8,-,N/A,,Overcast,120,2013-12-09 08:53:00
4:53 AM,75.9,68.0,76,30.15,10.0,ESE,9.2,-,N/A,,Mostly Cloudy,120,2013-12-09 09:53:00
5:53 AM,75.9,69.1,79,30.16,10.0,ESE,6.9,-,N/A,,Mostly Cloudy,120,2013-12-09 10:53:00
6:53 AM,75.9,68.0,76,30.18,10.0,SE,6.9,-,N/A,,Mostly Cloudy,130,2013-12-09 11:53:00
7:53 AM,77.0,68.0,74,30.19,10.0,ESE,8.1,-,N/A,,Scattered Clouds,110,2013-12-09 12:53:00
8:53 AM,80.1,66.9,64,30.20,10.0,ESE,12.7,-,N/A,,Scattered Clouds,120,2013-12-09 13:53:00
9:53 AM,81.0,66.0,60,30.21,10.0,ESE,16.1,23.0,N/A,,Scattered Clouds,110,2013-12-09 14:53:00
10:53 AM,82.0,66.0,58,30.20,10.0,ESE,18.4,-,N/A,,Partly Cloudy,110,2013-12-09 15:53:00
11:53 AM,82.9,66.0,56,30.18,10.0,East,15.0,-,N/A,,Scattered Clouds,100,2013-12-09 16:53:00
12:53 PM,82.0,66.0,58,30.15,10.0,East,18.4,-,N/A,,Scattered Clouds,100,2013-12-09 17:53:00
1:53 PM,82.0,66.9,60,30.13,10.0,SE,13.8,21.9,N/A,,Scattered Clouds,140,2013-12-09 18:53:00
2:53 PM,82.0,64.9,56,30.12,10.0,East,11.5,-,N/A,,Scattered Clouds,100,2013-12-09 19:53:00
3:53 PM,80.1,66.0,62,30.12,10.0,ESE,11.5,-,N/A,,Scattered Clouds,120,2013-12-09 20:53:00
4:53 PM,79.0,64.9,62,30.12,10.0,ESE,11.5,-,N/A,,Scattered Clouds,120,2013-12-09 21:53:00
5:53 PM,78.1,66.0,66,30.13,10.0,ESE,6.9,-,N/A,,Scattered Clouds,110,2013-12-09 22:53:00
6:53 PM,75.9,66.0,71,30.14,10.0,East,6.9,-,N/A,,Partly Cloudy,100,2013-12-09 23:53:00
7:53 PM,77.0,66.9,71,30.15,10.0,East,8.1,-,N/A,,Scattered Clouds,90,2013-12-10 00:53:00
8:53 PM,77.0,68.0,74,30.16,10.0,East,8.1,-,N/A,,Scattered Clouds,100,2013-12-10 01:53:00
9:53 PM,78.1,69.1,74,30.16,10.0,East,9.2,-,N/A,,Mostly Cloudy,90,2013-12-10 02:53:00
10:53 PM,77.0,69.1,76,30.15,10.0,ESE,11.5,-,N/A,,Mostly Cloudy,110,2013-12-10 03:53:00
11:53 PM,77.0,70.0,79,30.14,10.0,ESE,8.1,-,N/A,,Mostly Cloudy,120,2013-12-10 04:53:00